Weather Roundup
Issued by NWS

Home | Current Version | Previous Version | Graphics & Text | Print | Product List | Glossary Off
Versions: 1 2 3 4 5 6 7 8 9 10 11 12 13 14 15 16 17 18 19 20 21 22 23 24 25 26 27 28 29 30 31 32 33 34 35 36 37 38 39 40 41 42 43 44 45 46 47 48 49 50

000
NZUS93 KARX 231059
HRRWXR

CURRENT HOURLY OBSERVATIONS ACROSS
MUCH OF THE UPPER MISSISSIPPI VALLEY
NATIONAL WEATHER SERVICE LA CROSSE WI
600 AM CDT WED AUG 23 2017


...SOUTHEAST MINNESOTA...


CITY           SKY/WX    TMP DP  RH WIND       PRES   REMARKS
ROCHESTER      CLEAR     50  48  93 W9        30.10R
ROCHESTER/MAYO FAIR      55  49  82 W6        30.10R
WINONA         CLEAR     54  52  94 NW3       30.07R
AUSTIN         CLEAR     54  48  82 NW5       30.11R
ALBERT LEA     CLEAR     55  52  88 W3        30.12R
DODGE CENTER   CLEAR     50  46  87 W5        30.10R
PRESTON        CLEAR     51  47  86 NW9       30.09S
OWATONNA       CLEAR     48  48 100 CALM      30.11R
FARIBAULT      CLEAR     50  48  93 CALM      30.10R
$$

...ELSEWHERE IN MINNESOTA...


CITY           SKY/WX    TMP DP  RH WIND       PRES   REMARKS
MINNEAPOLIS    CLEAR     57  49  74 SW5       30.09R
INTNL FALLS    CLOUDY    51  48  89 W3        30.06R
DULUTH         PTCLDY    48  48 100 NW6       30.05R
RED WING       CLEAR     52  48  87 CALM      30.07R
REDWOOD FALLS  CLEAR     51  47  86 W7        30.12R
MANKATO        CLEAR     52  50  93 W5        30.11S
WORTHINGTON    CLEAR     51  47  86 W5        30.15S
FAIRMONT       CLEAR     53  49  86 W6        30.13S
$$

...SOUTHWEST WISCONSIN...


CITY           SKY/WX    TMP DP  RH WIND       PRES   REMARKS
LA CROSSE      CLEAR     56  53  90 SE3       30.06R
PRAIRIE DU CHI CLEAR     52  47  82 W3        30.08R
BOSCOBEL       CLEAR     52  50  93 SW3       30.07R
LONE ROCK      NOT AVBL
PLATTEVILLE    CLEAR     51  51 100 W5        30.07S
FORT MC COY    CLEAR     45  44  98 CALM      30.06R
MAUSTON-NEW LI SUNNY     54  50  87 NW5       30.03R
VIROQUA        FAIR      51  50  95 W5        30.06S
WIS DELLS      CLEAR     54  48  81 W3        30.04R
$$

...ELSEWHERE IN WISCONSIN...


CITY           SKY/WX    TMP DP  RH WIND       PRES   REMARKS
MILWAUKEE      CLEAR     61  51  70 W8        30.00R
MADISON        CLEAR     55  51  86 NW3       30.03R
GREEN BAY      PTCLDY    52  52 100 W8        29.98R
EAU CLAIRE     NOT AVBL
BLACK RVR FLS  FAIR      45  45 100 S3        30.04S
MEDFORD        CLEAR     47  46  98 W3        30.03R
WAUSAU         PTCLDY    53  50  89 NW7       30.01R
WIS RAPIDS     CLEAR     51  48  89 NW5       30.04R
MARSHFIELD     CLEAR     50  47  89 NW7       30.02S
RICE LAKE      CLEAR     49  48  97 CALM      30.06S
$$

...NORTHEAST IOWA...


CITY           SKY/WX    TMP DP  RH WIND       PRES   REMARKS
WATERLOO       CLEAR     49  48  97 NW3       30.10S
DUBUQUE        CLEAR     50  47  89 W6        30.08S
DECORAH        PTCLDY    52  50  93 CALM      30.08R
MASON CITY     CLEAR     50  48  93 W7        30.13R
CHARLES CITY   CLEAR     52  50  93 NW7       30.11R
OELWEIN        CLEAR     50  50 100 W6        30.11R
$$

...ELSEWHERE IN IOWA...


CITY           SKY/WX    TMP DP  RH WIND       PRES   REMARKS
DES MOINES     PTCLDY    56  53  90 W3        30.12F
IOWA CITY        N/A     55  51  86 CALM      30.11S
FORT DODGE     PTCLDY    50  46  87 CALM      30.14S
MARSHALLTOWN   CLEAR     50  49  96 CALM      30.11F
CEDAR RAPIDS   PTCLDY    49  48  97 W6        30.10R
$$

...NORTHERN ILLINOIS...


CITY           SKY/WX    TMP DP  RH WIND       PRES   REMARKS
CHICAGO-OHARE  PTCLDY    60  50  69 W8        30.02R
CHICAGO-MIDWAY CLEAR     60  51  72 W6        30.02R
MOLINE         CLEAR     52  49  89 SW3       30.08S
ROCKFORD       PTCLDY    53  50  89 CALM      30.06S
PEORIA         CLEAR     56  53  90 NW3       30.07S
$$

NOTE: "FAIR" INDICATES FEW OR NO CLOUDS BELOW 12,000 FEET WITH NO
SIGNIFICANT WEATHER AND/OR OBSTRUCTIONS TO VISIBILITY. WIND
SPEEDS ARE IN MILES-PER-HOUR.




USA.gov is the U.S. government's official web portal to all federal, state and local government web resources and services.